Flag for U.S.A. Weather past 2 weeks in Hayward, California, U.S.A.

Now
54 °F

Clear.


Feels Like: 53 °F
Forecast: 54 / 67 °F
Wind: 5 mph from East

Location: Hayward Air Terminal

Current Time: Oct 21, 2014 at 2:32:23 AM

Latest Report: Oct 21, 2014 at 1:54 AM


Visibility: 10 mi

Pressure: 30.10 "Hg

Humidity: 100%

Dew point: 54 °F

Location of HaywardLocation

Historic Weather in Hayward — Graph

°F

Hayward temperature yesterday

Maximum temperature yesterday: 69 °F (at 9:54 AM)
Minimum temperature yesterday: 58 °F (at 11:54 PM)
Average temperature yesterday: 64 °F

Past Weeks' High & Low Weather Summary

 TemperatureHumidityPressure
High88 °F (Oct 12, 2:54 PM)100% (Oct 9, 5:54 AM)30.10 "Hg (Oct 9, 5:54 AM)
Low55 °F (Oct 17, 3:54 AM)12% (Oct 13, 12:54 PM)29.85 "Hg (Oct 14, 4:54 PM)
Average66 °F72%29.97 "Hg
* Reported Oct 6 12:54 AM — Oct 21 12:54 AM, Hayward, Weather by CustomWeather, © 2014

Note: Actual official high and low records may vary slightly from our data, if they occured in-between our weather recording intervals... More about our weather records

Advertising

Hayward weather history for previous 24 hours

 ConditionsComfort  
Time TempWeatherWind HumidityBarometerVisibility
12:54 AM
Oct 21
55 °FClear.3 mph100%30.09 "Hg10 mi
11:54 PM
Oct 20
58 °FClear.No wind90%30.09 "Hg10 mi
11:02 PM61 °FPassing clouds.3 mph83%30.05 "Hg10 mi
10:54 PM61 °FPassing clouds.No wind81%30.08 "Hg10 mi
9:54 PM61 °FClear.5 mph83%30.05 "Hg10 mi
8:54 PM60 °FClear.9 mph90%30.04 "Hg10 mi
7:54 PM63 °FPassing clouds.9 mph84%30.03 "Hg10 mi
6:54 PM67 °FScattered clouds.10 mph73%30.01 "Hg10 mi
5:54 PM68 °FScattered clouds.7 mph63%30.01 "Hg10 mi
4:54 PM69 °FScattered clouds.13 mph61%30.00 "Hg10 mi
3:54 PM64 °FScattered clouds.6 mph75%30.00 "Hg10 mi
2:54 PM65 °FOvercast.5 mph68%30.00 "Hg10 mi
1:54 PM61 °FMostly cloudy.No wind78%30.00 "Hg10 mi
12:54 PM67 °FOvercast.10 mph71%30.01 "Hg10 mi
11:54 AM66 °FMore clouds than sun.6 mph81%30.00 "Hg10 mi
10:54 AM64 °FLight rain. Mostly cloudy.8 mphN/A30.00 "Hg1 mi
9:54 AM69 °FMostly cloudy.7 mph70%29.98 "Hg10 mi
8:54 AM66 °FPassing clouds.7 mph81%29.96 "Hg10 mi
7:54 AM64 °FClear.7 mph90%29.94 "Hg10 mi
6:54 AM64 °FPartly cloudy.3 mph87%29.94 "Hg10 mi
5:54 AM64 °FOvercast.No wind87%29.94 "Hg10 mi
4:54 AM64 °FPassing clouds.3 mph84%29.93 "Hg10 mi
3:54 AM66 °FPassing clouds.3 mph78%29.93 "Hg10 mi
2:54 AM66 °FOvercast.3 mph81%29.94 "Hg10 mi
Weather by CustomWeather, © 2014

See weather overviewHow to use our weather pages